Location: Cactus School
(34.5700°N, 118.0931°W)
Time: 06:56:50
(UTC-08:00)

Hubble Space Telescope - Visible Passes

Search period start: 22 November 2017 00:00
Search period end: 02 December 2017 00:00
Orbit: 537 x 541 km, 28.5° (Epoch: 21 November)

Date Brightness Start Highest point End Pass type
(mag) Time Alt. Az. Time Alt. Az. Time Alt. Az.
22 Nov 3.1 04:01:41 21° SE 04:01:41 21° SE 04:03:23 10° ESE visible
22 Nov 2.2 05:37:03 11° WSW 05:40:29 30° S 05:44:06 10° SE visible
23 Nov 3.5 03:52:07 16° ESE 03:52:07 16° ESE 03:53:09 10° ESE visible
23 Nov 2.3 05:27:28 14° WSW 05:30:12 27° SSW 05:33:43 10° SE visible
24 Nov 3.9 03:42:32 12° ESE 03:42:32 12° ESE 03:42:53 10° ESE visible
24 Nov 2.4 05:17:54 17° SW 05:19:55 24° SSW 05:23:16 10° SE visible
25 Nov 2.5 05:08:19 18° SW 05:09:37 21° SSW 05:12:45 10° SSE visible
26 Nov 2.7 04:58:45 17° SSW 04:59:19 18° SSW 05:02:08 10° SSE visible
27 Nov 2.9 04:49:12 15° SSW 04:49:12 15° SSW 04:51:23 10° SSE visible
28 Nov 3.3 04:39:40 11° S 04:39:40 11° S 04:40:21 10° S visible
